,,Stat5,,Stat1,,Stat2,,Stat3,,Stat4,,Wind1,,Wind1,
time,status,PA1M_AVG,status,PR1M_SUM,status,RH1M_AVG,status,SR1M_AVG,status,TA1M_AVG,status,W1dAve1m,status,W1sAve1m,
2003-05-01, 00:00:00,VALID,917.1,VALID,0,VALID,95.7124,VALID,0.271693,VALID,20.0828,VALID,59,VALID,0.0455357,
2003-05-01, 00:01:00,VALID,917.096,VALID,0,VALID,95.6704,VALID,0.254712,VALID,20.0793,VALID,59,VALID,0.0183036,
2003-05-01, 00:02:00,VALID,917.071,VALID,0,VALID,95.6768,VALID,0.254712,VALID,20.0795,VALID,59,VALID,0.0121528,
2003-05-01, 00:03:00,VALID,917.057,VALID,0,VALID,95.6208,VALID,0.288674,VALID,20.0766,VALID,59,VALID,0,
2003-05-01, 00:04:00,VALID,917.046,VALID,0,VALID,95.6526,VALID,0.339617,VALID,20.0955,VALID,87,VALID,0.0894886,
2003-05-01, 00:05:00,VALID,917.025,VALID,0,VALID,95.7595,VALID,0.339617,VALID,20.083,VALID,220,VALID,0.115132,
2003-05-01, 00:06:00,VALID,917.028,VALID,0,VALID,95.7671,VALID,0.237732,VALID,20.0763,VALID,186,VALID,0.0477941,
2003-05-01, 00:07:00,VALID,917.011,VALID,0,VALID,95.6908,VALID,0.237732,VALID,20.0835,VALID,153,VALID,0.280066,
2003-05-01, 00:08:00,VALID,917.009,VALID,0,VALID,95.6476,VALID,0.288674,VALID,20.0674,VALID,140,VALID,0.407335,
2003-05-01, 00:09:00,VALID,916.993,VALID,0,VALID,95.7467,VALID,0.305655,VALID,20.0674,VALID,149,VALID,0.547991,
2003-05-01, 00:10:00,VALID,916.976,VALID,0,VALID,95.6933,VALID,0.288674,VALID,20.0507,VALID,165,VALID,0.3866,
2003-05-01, 00:11:00,VALID,916.953,VALID,0,VALID,95.7366,VALID,0.288674,VALID,20.0345,VALID,146,VALID,0.462277,
2003-05-01, 00:12:00,VALID,916.948,VALID,0,VALID,95.6654,VALID,0.237732,VALID,20.0348,VALID,155,VALID,0.779241,
2003-05-01, 00:13:00,VALID,916.931,VALID,0,VALID,95.5077,VALID,0.220751,VALID,19.9952,VALID,151,VALID,0.682528,
2003-05-01, 00:14:00,VALID,916.909,VALID,0,VALID,95.5064,VALID,0.254712,VALID,20.0019,VALID,119,VALID,0.380345,
2003-05-01, 00:15:00,VALID,916.895,VALID,0,VALID,95.5433,VALID,0.254712,VALID,20.0044,VALID,90,VALID,0.154182,
2003-05-01, 00:16:00,VALID,916.873,VALID,0,VALID,95.556,VALID,0.288674,VALID,20.0248,VALID,123,VALID,0.178977,
2003-05-01, 00:17:00,VALID,916.862,VALID,0,VALID,95.617,VALID,0.271693,VALID,20.0149,VALID,123,VALID,0.0917969,
2003-05-01, 00:18:00,VALID,916.833,VALID,0,VALID,95.6603,VALID,0.20377,VALID,19.9984,VALID,129,VALID,0.311384,
2003-05-01, 00:19:00,VALID,916.82,VALID,0,VALID,95.7849,VALID,0.322636,VALID,20.0121,VALID,164,VALID,0.36553,
2003-05-01, 00:20:00,VALID,916.808,VALID,0,VALID,95.9756,VALID,0.271693,VALID,19.9925,VALID,187,VALID,0.679464,
2003-05-01, 00:21:00,VALID,916.787,VALID,0,VALID,96.1028,VALID,0.220751,VALID,20.0189,VALID,159,VALID,0.554688,
2003-05-01, 00:22:00,VALID,916.788,VALID,0,VALID,96.1397,VALID,0.237732,VALID,20.0186,VALID,163,VALID,0.0826231,
2003-05-01, 00:23:00,VALID,916.778,VALID,0,VALID,96.2007,VALID,0.237732,VALID,20.0353,VALID,168,VALID,0.47903,
2003-05-01, 00:24:00,VALID,916.778,VALID,0,VALID,96.2541,VALID,0.271693,VALID,20.0385,VALID,148,VALID,0.56296,
2003-05-01, 00:25:00,VALID,916.771,VALID,0,VALID,96.2935,VALID,0.271693,VALID,20.0385,VALID,152,VALID,0.183239,
2003-05-01, 00:26:00,VALID,916.769,VALID,0,VALID,96.3266,VALID,0.305655,VALID,20.0278,VALID,152,VALID,0.211806,
2003-05-01, 00:27:00,VALID,916.756,VALID,0,VALID,96.3495,VALID,0.152827,VALID,20.0154,VALID,152,VALID,0.358259,
2003-05-01, 00:28:00,VALID,916.756,VALID,0,VALID,96.4118,VALID,0.220751,VALID,19.9989,VALID,114,VALID,0.189867,
2003-05-01, 00:29:00,VALID,916.74,VALID,0,VALID,96.4728,VALID,0.237732,VALID,20.0054,VALID,83,VALID,0.0591518,
2003-05-01, 00:30:00,VALID,916.739,VALID,0,VALID,96.4283,VALID,0.237732,VALID,20.0019,VALID,159,VALID,0.552679,
2003-05-01, 00:31:00,VALID,916.72,VALID,0,VALID,96.5415,VALID,0.237732,VALID,19.9925,VALID,188,VALID,0.151515,
2003-05-01, 00:32:00,VALID,916.697,VALID,0,VALID,96.6165,VALID,0.220751,VALID,19.9865,VALID,152,VALID,0.00143914,
2003-05-01, 00:33:00,VALID,916.691,VALID,0,VALID,96.6534,VALID,0.220751,VALID,19.9763,VALID,152,VALID,0,
2003-05-01, 00:34:00,VALID,916.668,VALID,0,VALID,96.7055,VALID,0.305655,VALID,19.9669,VALID,137,VALID,0.0426136,
2003-05-01, 00:35:00,VALID,916.658,VALID,0,VALID,96.7335,VALID,0.237732,VALID,19.9674,VALID,66,VALID,0.376085,
2003-05-01, 00:36:00,VALID,916.637,VALID,0,VALID,96.7767,VALID,0.237732,VALID,19.9609,VALID,40,VALID,0.442187,
2003-05-01, 00:37:00,VALID,916.626,VALID,0,VALID,96.7742,VALID,0.237732,VALID,19.9348,VALID,40,VALID,0.00875947,
2003-05-01, 00:38:00,VALID,916.6,VALID,0,VALID,96.8467,VALID,0.254712,VALID,19.9151,VALID,168,VALID,0.0984375,
2003-05-01, 00:39:00,VALID,916.591,VALID,0,VALID,96.9586,VALID,0.305655,VALID,19.9141,VALID,179,VALID,0.197545,
2003-05-01, 00:40:00,VALID,916.585,VALID,0,VALID,97.0756,VALID,0.373578,VALID,19.9233,VALID,179,VALID,0.0719697,
2003-05-01, 00:41:00,VALID,916.575,VALID,0,VALID,97.1964,VALID,0.40754,VALID,19.9236,VALID,182,VALID,0.148849,
2003-05-01, 00:42:00,VALID,916.567,VALID,0,VALID,97.2116,VALID,0.305655,VALID,19.8972,VALID,182,VALID,0.0124081,
2003-05-01, 00:43:00,VALID,916.566,VALID,0,VALID,97.2803,VALID,0.322636,VALID,19.9144,VALID,182,VALID,0.109612,
2003-05-01, 00:44:00,VALID,916.55,VALID,0,VALID,97.307,VALID,0.288674,VALID,19.8915,VALID,182,VALID,0,
2003-05-01, 00:45:00,VALID,916.535,VALID,0,VALID,97.335,VALID,0.305655,VALID,19.8955,VALID,182,VALID,0.0611607,
2003-05-01, 00:46:00,VALID,916.533,VALID,0,VALID,97.4214,VALID,0.373578,VALID,19.8785,VALID,182,VALID,0.178504,
2003-05-01, 00:47:00,VALID,916.521,VALID,0,VALID,97.4189,VALID,0.305655,VALID,19.8785,VALID,182,VALID,0.0977679,
2003-05-01, 00:48:00,VALID,916.502,VALID,0,VALID,97.4138,VALID,0.305655,VALID,19.8457,VALID,182,VALID,0,
2003-05-01, 00:49:00,VALID,916.49,VALID,0,VALID,97.4837,VALID,0.424521,VALID,19.8489,VALID,182,VALID,0.000710227,
2003-05-01, 00:50:00,VALID,916.474,VALID,0,VALID,97.4888,VALID,0.390559,VALID,19.8263,VALID,182,VALID,0.0185033,
2003-05-01, 00:51:00,VALID,916.449,VALID,0,VALID,97.5626,VALID,0.322636,VALID,19.83,VALID,182,VALID,0.0572151,
2003-05-01, 00:52:00,VALID,916.436,VALID,0,VALID,97.663,VALID,0.339617,VALID,19.8265,VALID,163,VALID,0.296638,
2003-05-01, 00:53:00,VALID,916.406,VALID,0,VALID,97.7304,VALID,0.356597,VALID,19.8298,VALID,55,VALID,0.137804,
2003-05-01, 00:54:00,VALID,916.39,VALID,0,VALID,97.7826,VALID,0.373578,VALID,19.8236,VALID,82,VALID,0.258929,
2003-05-01, 00:55:00,VALID,916.377,VALID,0,VALID,97.8067,VALID,0.322636,VALID,19.8171,VALID,140,VALID,0.247633,
2003-05-01, 00:56:00,VALID,916.348,VALID,0,VALID,97.8538,VALID,0.339617,VALID,19.8079,VALID,141,VALID,0.241518,
2003-05-01, 00:57:00,VALID,916.344,VALID,0,VALID,97.8576,VALID,0.305655,VALID,19.8012,VALID,124,VALID,0.395536,
2003-05-01, 00:58:00,VALID,916.326,VALID,0,VALID,97.9046,VALID,0.305655,VALID,19.778,VALID,143,VALID,0.829309,
2003-05-01, 00:59:00,VALID,916.315,VALID,0,VALID,97.925,VALID,0.322636,VALID,19.7783,VALID,148,VALID,1.40872,
2003-05-01, 01:00:00,VALID,916.3,VALID,0,VALID,97.9352,VALID,0.305655,VALID,19.795,VALID,157,VALID,0.921875,
2003-05-01, 01:01:00,VALID,916.291,VALID,0,VALID,97.9428,VALID,0.322636,VALID,19.7945,VALID,154,VALID,0.7384,
2003-05-01, 01:02:00,VALID,916.292,VALID,0,VALID,97.9415,VALID,0.322636,VALID,19.8044,VALID,157,VALID,1.01519,
2003-05-01, 01:03:00,VALID,916.292,VALID,0,VALID,97.9326,VALID,0.305655,VALID,19.791,VALID,130,VALID,1.13147,
2003-05-01, 01:04:00,VALID,916.273,VALID,0,VALID,97.8754,VALID,0.40754,VALID,19.8141,VALID,131,VALID,0.940814,
2003-05-01, 01:05:00,VALID,916.253,VALID,0,VALID,97.7648,VALID,0.373578,VALID,19.8074,VALID,143,VALID,0.983482,
2003-05-01, 01:06:00,VALID,916.242,VALID,0,VALID,97.6402,VALID,0.322636,VALID,19.8236,VALID,146,VALID,1.03571,
2003-05-01, 01:07:00,VALID,916.231,VALID,0,VALID,97.466,VALID,0.356597,VALID,19.8333,VALID,121,VALID,0.919508,
2003-05-01, 01:08:00,VALID,916.216,VALID,0,VALID,97.3439,VALID,0.356597,VALID,19.836,VALID,117,VALID,0.734375,
2003-05-01, 01:09:00,VALID,916.222,VALID,0,VALID,97.1709,VALID,0.373578,VALID,19.8333,VALID,143,VALID,0.93727,
2003-05-01, 01:10:00,VALID,916.21,VALID,0,VALID,97.0018,VALID,0.322636,VALID,19.8564,VALID,121,VALID,0.84233,
2003-05-01, 01:11:00,VALID,916.192,VALID,0,VALID,96.8861,VALID,0.356597,VALID,19.8596,VALID,149,VALID,0.980686,
2003-05-01, 01:12:00,VALID,916.173,VALID,0,VALID,96.7805,VALID,0.254712,VALID,19.8594,VALID,145,VALID,0.573214,
2003-05-01, 01:13:00,VALID,916.183,VALID,0,VALID,96.7538,VALID,0.305655,VALID,19.8656,VALID,124,VALID,0.437973,
2003-05-01, 01:14:00,VALID,916.184,VALID,0,VALID,96.6191,VALID,0.271693,VALID,19.8527,VALID,142,VALID,0.780357,
2003-05-01, 01:15:00,VALID,916.167,VALID,0,VALID,96.5707,VALID,0.305655,VALID,19.8661,VALID,164,VALID,0.747098,
2003-05-01, 01:16:00,VALID,916.161,VALID,0,VALID,96.5835,VALID,0.288674,VALID,19.8698,VALID,174,VALID,0.851563,
2003-05-01, 01:17:00,VALID,916.139,VALID,0,VALID,96.6292,VALID,0.288674,VALID,19.8529,VALID,179,VALID,1.24959,
2003-05-01, 01:18:00,VALID,916.129,VALID,0,VALID,96.7157,VALID,0.305655,VALID,19.8599,VALID,168,VALID,1.33617,
2003-05-01, 01:19:00,VALID,916.124,VALID,0,VALID,96.8263,VALID,0.373578,VALID,19.834,VALID,171,VALID,0.885417,
2003-05-01, 01:20:00,VALID,916.119,VALID,0,VALID,96.9395,VALID,0.356597,VALID,19.8211,VALID,178,VALID,0.830295,
2003-05-01, 01:21:00,VALID,916.087,VALID,0,VALID,97.0527,VALID,0.305655,VALID,19.8044,VALID,173,VALID,1.00446,
2003-05-01, 01:22:00,VALID,916.073,VALID,0,VALID,97.1557,VALID,0.339617,VALID,19.7915,VALID,165,VALID,1.36766,
2003-05-01, 01:23:00,VALID,916.059,VALID,0,VALID,97.2421,VALID,0.339617,VALID,19.7746,VALID,179,VALID,0.994643,
2003-05-01, 01:24:00,VALID,916.032,VALID,0,VALID,97.2638,VALID,0.356597,VALID,19.7718,VALID,153,VALID,0.540179,
2003-05-01, 01:25:00,VALID,916.018,VALID,0,VALID,97.1544,VALID,0.339617,VALID,19.7594,VALID,167,VALID,0.892992,
2003-05-01, 01:26:00,VALID,915.987,VALID,0,VALID,97.0603,VALID,0.339617,VALID,19.7365,VALID,132,VALID,0.596217,
2003-05-01, 01:27:00,VALID,915.964,VALID,0,VALID,97.0539,VALID,0.288674,VALID,19.737,VALID,152,VALID,0.832031,
2003-05-01, 01:28:00,VALID,915.942,VALID,0,VALID,96.8301,VALID,0.322636,VALID,19.7469,VALID,165,VALID,1.15223,
2003-05-01, 01:29:00,VALID,915.928,VALID,0,VALID,96.5059,VALID,0.322636,VALID,19.7559,VALID,123,VALID,0.882813,
2003-05-01, 01:30:00,VALID,915.9,VALID,0,VALID,96.352,VALID,0.288674,VALID,19.7855,VALID,150,VALID,1.12254,
2003-05-01, 01:31:00,VALID,915.893,VALID,0,VALID,96.16,VALID,0.305655,VALID,19.8049,VALID,141,VALID,1.41548,
2003-05-01, 01:32:00,VALID,915.876,VALID,0,VALID,96.16,VALID,0.305655,VALID,19.83,VALID,127,VALID,0.777455,
2003-05-01, 01:33:00,VALID,915.865,VALID,0,VALID,95.7785,VALID,0.254712,VALID,19.8464,VALID,139,VALID,1.40418,
2003-05-01, 01:34:00,VALID,915.851,VALID,0,VALID,95.4314,VALID,0.356597,VALID,19.8594,VALID,127,VALID,1.18703,
2003-05-01, 01:35:00,VALID,915.836,VALID,0,VALID,95.1682,VALID,0.390559,VALID,19.8892,VALID,112,VALID,1.04811,
2003-05-01, 01:36:00,VALID,915.824,VALID,0,VALID,94.9342,VALID,0.271693,VALID,19.9119,VALID,97,VALID,0.965303,
2003-05-01, 01:37:00,VALID,915.799,VALID,0,VALID,94.7701,VALID,0.305655,VALID,19.9343,VALID,111,VALID,1.24787,
2003-05-01, 01:38:00,VALID,915.778,VALID,0,VALID,94.4077,VALID,0.322636,VALID,19.9534,VALID,110,VALID,1.07335,
2003-05-01, 01:39:00,VALID,915.775,VALID,0,VALID,94.3124,VALID,0.356597,VALID,19.9728,VALID,74,VALID,0.529018,
2003-05-01, 01:40:00,VALID,915.753,VALID,0,VALID,94.3098,VALID,0.322636,VALID,19.9982,VALID,119,VALID,0.693892,
2003-05-01, 01:41:00,VALID,915.729,VALID,0,VALID,94.5743,VALID,0.305655,VALID,20.0149,VALID,152,VALID,0.871429,
2003-05-01, 01:42:00,VALID,915.718,VALID,0,VALID,94.6354,VALID,0.305655,VALID,20.0116,VALID,140,VALID,0.508705,
2003-05-01, 01:43:00,VALID,915.701,VALID,0,VALID,94.6354,VALID,0.305655,VALID,20.0049,VALID,95,VALID,0.501657,
2003-05-01, 01:44:00,VALID,915.69,VALID,0,VALID,94.8083,VALID,0.288674,VALID,19.9853,VALID,120,VALID,0.307977,
2003-05-01, 01:45:00,VALID,915.668,VALID,0,VALID,94.9316,VALID,0.288674,VALID,19.9858,VALID,45,VALID,0.340074,
2003-05-01, 01:46:00,VALID,915.664,VALID,0,VALID,94.9596,VALID,0.356597,VALID,19.9462,VALID,48,VALID,0.44768,
2003-05-01, 01:47:00,VALID,915.654,VALID,0,VALID,94.9876,VALID,0.339617,VALID,19.9243,VALID,101,VALID,0.328125,
2003-05-01, 01:48:00,VALID,915.638,VALID,0,VALID,95.0512,VALID,0.288674,VALID,19.8855,VALID,34,VALID,0.3375,
2003-05-01, 01:49:00,VALID,915.626,VALID,0,VALID,95.1275,VALID,0.390559,VALID,19.8457,VALID,34,VALID,0.49053,
2003-05-01, 01:50:00,VALID,915.609,VALID,0,VALID,95.144,VALID,0.356597,VALID,19.7887,VALID,34,VALID,0.477009,
2003-05-01, 01:51:00,VALID,915.599,VALID,0,VALID,95.3436,VALID,0.322636,VALID,19.7196,VALID,34,VALID,0.161384,
2003-05-01, 01:52:00,VALID,915.578,VALID,0,VALID,95.6361,VALID,0.322636,VALID,19.6716,VALID,34,VALID,0.0355114,
2003-05-01, 01:53:00,VALID,915.576,VALID,0,VALID,95.9044,VALID,0.322636,VALID,19.6328,VALID,34,VALID,0,
2003-05-01, 01:54:00,VALID,915.567,VALID,0,VALID,96.1867,VALID,0.356597,VALID,19.6171,VALID,99,VALID,0.293658,
2003-05-01, 01:55:00,VALID,915.554,VALID,0,VALID,96.3927,VALID,0.356597,VALID,19.6136,VALID,104,VALID,0.0703125,
2003-05-01, 01:56:00,VALID,915.527,VALID,0,VALID,96.4944,VALID,0.356597,VALID,19.5945,VALID,114,VALID,0.363715,
2003-05-01, 01:57:00,VALID,915.518,VALID,0,VALID,96.5885,VALID,0.271693,VALID,19.581,VALID,107,VALID,0.416518,
2003-05-01, 01:58:00,VALID,915.495,VALID,0,VALID,96.8416,VALID,0.305655,VALID,19.5882,VALID,148,VALID,0.687027,
2003-05-01, 01:59:00,VALID,915.462,VALID,0,VALID,96.8988,VALID,0.322636,VALID,19.591,VALID,142,VALID,0.732589,
2003-05-01, 02:00:00,VALID,915.442,VALID,0,VALID,96.8568,VALID,0.271693,VALID,19.5942,VALID,140,VALID,0.301339,
2003-05-01, 02:01:00,VALID,915.413,VALID,0,VALID,96.8772,VALID,0.288674,VALID,19.5952,VALID,144,VALID,0.93892,
2003-05-01, 02:02:00,VALID,915.378,VALID,0,VALID,96.9281,VALID,0.305655,VALID,19.5681,VALID,153,VALID,0.489309,
2003-05-01, 02:03:00,VALID,915.352,VALID,0,VALID,97.0222,VALID,0.288674,VALID,19.5743,VALID,149,VALID,0.992877,
2003-05-01, 02:04:00,VALID,915.328,VALID,0,VALID,97.1137,VALID,0.40754,VALID,19.594,VALID,151,VALID,0.976563,
2003-05-01, 02:05:00,VALID,915.307,VALID,0,VALID,97.1404,VALID,0.390559,VALID,19.594,VALID,155,VALID,1.04405,
2003-05-01, 02:06:00,VALID,915.289,VALID,0,VALID,97.2231,VALID,0.288674,VALID,19.6007,VALID,146,VALID,1.28304,
2003-05-01, 02:07:00,VALID,915.273,VALID,0,VALID,97.3172,VALID,0.322636,VALID,19.6044,VALID,148,VALID,1.05895,
2003-05-01, 02:08:00,VALID,915.253,VALID,0,VALID,97.335,VALID,0.339617,VALID,19.6039,VALID,145,VALID,0.91942,
2003-05-01, 02:09:00,VALID,915.23,VALID,0,VALID,97.3642,VALID,0.356597,VALID,19.5975,VALID,149,VALID,1.12478,
2003-05-01, 02:10:00,VALID,915.215,VALID,0,VALID,97.4265,VALID,0.339617,VALID,19.5977,VALID,145,VALID,1.12524,
2003-05-01, 02:11:00,VALID,915.191,VALID,0,VALID,97.4748,VALID,0.373578,VALID,19.5947,VALID,150,VALID,1.04256,
2003-05-01, 02:12:00,VALID,915.169,VALID,0,VALID,97.5244,VALID,0.305655,VALID,19.5853,VALID,146,VALID,0.85386,
2003-05-01, 02:13:00,VALID,915.144,VALID,0,VALID,97.5626,VALID,0.305655,VALID,19.5753,VALID,143,VALID,0.692235,
2003-05-01, 02:14:00,VALID,915.121,VALID,0,VALID,97.5956,VALID,0.339617,VALID,19.5686,VALID,149,VALID,0.838759,
2003-05-01, 02:15:00,VALID,915.09,VALID,0,VALID,97.6211,VALID,0.288674,VALID,19.5492,VALID,131,VALID,0.471205,
2003-05-01, 02:16:00,VALID,915.07,VALID,0,VALID,97.6643,VALID,0.322636,VALID,19.5402,VALID,137,VALID,0.740767,
2003-05-01, 02:17:00,VALID,915.037,VALID,0,VALID,97.7228,VALID,0.288674,VALID,19.5238,VALID,138,VALID,1.13638,
2003-05-01, 02:18:00,VALID,915.029,VALID,0,VALID,97.7241,VALID,0.305655,VALID,19.5007,VALID,153,VALID,1.00915,
2003-05-01, 02:19:00,VALID,915.006,VALID,0,VALID,97.8144,VALID,0.390559,VALID,19.5106,VALID,133,VALID,0.801136,
2003-05-01, 02:20:00,VALID,914.996,VALID,0,VALID,97.8525,VALID,0.390559,VALID,19.4848,VALID,141,VALID,1.00905,
2003-05-01, 02:21:00,VALID,914.961,VALID,0,VALID,97.897,VALID,0.339617,VALID,19.4845,VALID,121,VALID,0.796186,
2003-05-01, 02:22:00,VALID,914.965,VALID,0,VALID,97.8741,VALID,0.339617,VALID,19.488,VALID,131,VALID,0.516098,
2003-05-01, 02:23:00,VALID,914.948,VALID,0,VALID,97.8678,VALID,0.322636,VALID,19.488,VALID,147,VALID,0.494141,
2003-05-01, 02:24:00,VALID,914.922,VALID,0,VALID,97.9199,VALID,0.356597,VALID,19.4721,VALID,140,VALID,1.13527,
2003-05-01, 02:25:00,VALID,914.901,VALID,0,VALID,97.8894,VALID,0.339617,VALID,19.4783,VALID,125,VALID,0.964962,
2003-05-01, 02:26:00,VALID,914.88,VALID,0,VALID,97.9186,VALID,0.356597,VALID,19.4785,VALID,114,VALID,0.343527,
2003-05-01, 02:27:00,VALID,914.868,VALID,0,VALID,97.9136,VALID,0.305655,VALID,19.4713,VALID,163,VALID,0.623438,
2003-05-01, 02:28:00,VALID,914.831,VALID,0,VALID,97.8881,VALID,0.322636,VALID,19.4681,VALID,153,VALID,0.608191,
2003-05-01, 02:29:00,VALID,914.806,VALID,0,VALID,97.8792,VALID,0.356597,VALID,19.4711,VALID,149,VALID,0.499794,
2003-05-01, 02:30:00,VALID,914.786,VALID,0,VALID,97.8563,VALID,0.322636,VALID,19.4845,VALID,140,VALID,0.403952,
2003-05-01, 02:31:00,VALID,914.767,VALID,0,VALID,97.8958,VALID,0.339617,VALID,19.4781,VALID,136,VALID,0.380445,
2003-05-01, 02:32:00,VALID,914.74,VALID,0,VALID,97.8856,VALID,0.339617,VALID,19.4885,VALID,166,VALID,0.679036,
2003-05-01, 02:33:00,VALID,914.716,VALID,0,VALID,97.8258,VALID,0.288674,VALID,19.4716,VALID,153,VALID,0.673437,
2003-05-01, 02:34:00,VALID,914.687,VALID,0,VALID,97.7139,VALID,0.390559,VALID,19.4783,VALID,155,VALID,0.149621,
2003-05-01, 02:35:00,VALID,914.67,VALID,0,VALID,97.6338,VALID,0.390559,VALID,19.4591,VALID,155,VALID,0.227455,
2003-05-01, 02:36:00,VALID,914.651,VALID,0,VALID,97.5969,VALID,0.322636,VALID,19.4554,VALID,167,VALID,0.294643,
2003-05-01, 02:37:00,VALID,914.638,VALID,0,VALID,97.5613,VALID,0.339617,VALID,19.449,VALID,175,VALID,0.309186,
2003-05-01, 02:38:00,VALID,914.62,VALID,0,VALID,97.4825,VALID,0.356597,VALID,19.4527,VALID,169,VALID,0.440995,
2003-05-01, 02:39:00,VALID,914.611,VALID,0,VALID,97.3998,VALID,0.356597,VALID,19.4395,VALID,161,VALID,0.684053,
2003-05-01, 02:40:00,VALID,914.592,VALID,0,VALID,97.3134,VALID,0.305655,VALID,19.4527,VALID,181,VALID,0.618608,
2003-05-01, 02:41:00,VALID,914.568,VALID,0,VALID,97.2294,VALID,0.40754,VALID,19.4497,VALID,167,VALID,0.407552,
2003-05-01, 02:42:00,VALID,914.555,VALID,0,VALID,97.1875,VALID,0.288674,VALID,19.4293,VALID,163,VALID,0.26183,
2003-05-01, 02:43:00,VALID,914.542,VALID,0,VALID,97.1887,VALID,0.254712,VALID,19.4368,VALID,151,VALID,0.312973,
2003-05-01, 02:44:00,VALID,914.517,VALID,0,VALID,97.2294,VALID,0.288674,VALID,19.4268,VALID,170,VALID,0.432589,
2003-05-01, 02:45:00,VALID,914.496,VALID,0,VALID,97.2574,VALID,0.288674,VALID,19.4271,VALID,165,VALID,0.452455,
2003-05-01, 02:46:00,VALID,914.476,VALID,0,VALID,97.3083,VALID,0.322636,VALID,19.4171,VALID,176,VALID,0.631629,
2003-05-01, 02:47:00,VALID,914.461,VALID,0,VALID,97.4481,VALID,0.305655,VALID,19.4007,VALID,167,VALID,0.850535,
2003-05-01, 02:48:00,VALID,914.437,VALID,0,VALID,97.5473,VALID,0.305655,VALID,19.4034,VALID,159,VALID,0.505974,
2003-05-01, 02:49:00,VALID,914.426,VALID,0,VALID,97.5511,VALID,0.390559,VALID,19.4009,VALID,176,VALID,0.432292,
2003-05-01, 02:50:00,VALID,914.409,VALID,0,VALID,97.6338,VALID,0.356597,VALID,19.4077,VALID,151,VALID,0.597222,
2003-05-01, 02:51:00,VALID,914.4,VALID,0,VALID,97.6821,VALID,0.305655,VALID,19.387,VALID,148,VALID,0.566964,
2003-05-01, 02:52:00,VALID,914.39,VALID,0,VALID,97.6262,VALID,0.288674,VALID,19.3808,VALID,154,VALID,0.392282,
2003-05-01, 02:53:00,VALID,914.376,VALID,0,VALID,97.6986,VALID,0.322636,VALID,19.3684,VALID,135,VALID,0.631027,
2003-05-01, 02:54:00,VALID,914.367,VALID,0,VALID,97.6732,VALID,0.356597,VALID,19.3621,VALID,129,VALID,0.344866,
2003-05-01, 02:55:00,VALID,914.347,VALID,0,VALID,97.7165,VALID,0.356597,VALID,19.3554,VALID,170,VALID,0.533854,
2003-05-01, 02:56:00,VALID,914.342,VALID,0,VALID,97.7076,VALID,0.339617,VALID,19.3457,VALID,155,VALID,0.207648,
2003-05-01, 02:57:00,VALID,914.338,VALID,0,VALID,97.7406,VALID,0.288674,VALID,19.3393,VALID,142,VALID,0.464384,
2003-05-01, 02:58:00,VALID,914.321,VALID,0,VALID,97.7215,VALID,0.254712,VALID,19.3328,VALID,125,VALID,0.102273,
2003-05-01, 02:59:00,VALID,914.316,VALID,0,VALID,97.6605,VALID,0.288674,VALID,19.3363,VALID,117,VALID,0.0972222,
2003-05-01, 03:00:00,VALID,914.302,VALID,0,VALID,97.6313,VALID,0.288674,VALID,19.3268,VALID,91,VALID,0.0631696,
2003-05-01, 03:01:00,VALID,914.29,VALID,0,VALID,97.5893,VALID,0.305655,VALID,19.3074,VALID,91,VALID,0,
2003-05-01, 03:02:00,VALID,914.286,VALID,0,VALID,97.541,VALID,0.322636,VALID,19.3007,VALID,90,VALID,0.0366071,
2003-05-01, 03:03:00,VALID,914.282,VALID,0,VALID,97.4164,VALID,0.271693,VALID,19.252,VALID,57,VALID,0.46317,
2003-05-01, 03:04:00,VALID,914.273,VALID,0,VALID,97.3337,VALID,0.390559,VALID,19.2194,VALID,51,VALID,0.344223,
2003-05-01, 03:05:00,VALID,914.263,VALID,0,VALID,97.3528,VALID,0.356597,VALID,19.1651,VALID,51,VALID,0.349507,
2003-05-01, 03:06:00,VALID,914.266,VALID,0,VALID,97.5499,VALID,0.254712,VALID,19.1259,VALID,53,VALID,0.54205,
2003-05-01, 03:07:00,VALID,914.263,VALID,0,VALID,97.7419,VALID,0.322636,VALID,19.1388,VALID,62,VALID,0.439157,
2003-05-01, 03:08:00,VALID,914.266,VALID,0,VALID,97.5817,VALID,0.322636,VALID,19.1067,VALID,44,VALID,0.455729,
2003-05-01, 03:09:00,VALID,914.255,VALID,0,VALID,97.5562,VALID,0.373578,VALID,19.0517,VALID,44,VALID,0.394196,
2003-05-01, 03:10:00,VALID,914.246,VALID,0,VALID,97.6402,VALID,0.339617,VALID,19.0256,VALID,56,VALID,0.290483,
2003-05-01, 03:11:00,VALID,914.224,VALID,0,VALID,97.8474,VALID,0.339617,VALID,19.0099,VALID,61,VALID,0.348437,
2003-05-01, 03:12:00,VALID,914.221,VALID,0,VALID,97.644,VALID,0.254712,VALID,18.9674,VALID,54,VALID,0.467187,
2003-05-01, 03:13:00,VALID,914.211,VALID,0,VALID,97.6859,VALID,0.220751,VALID,18.9095,VALID,47,VALID,0.473011,
2003-05-01, 03:14:00,VALID,914.202,VALID,0,VALID,97.7482,VALID,0.254712,VALID,18.8737,VALID,47,VALID,0.50514,
2003-05-01, 03:15:00,VALID,914.205,VALID,0,VALID,97.8156,VALID,0.271693,VALID,18.8453,VALID,47,VALID,0.6358,
2003-05-01, 03:16:00,VALID,914.21,VALID,0,VALID,97.9377,VALID,0.271693,VALID,18.8,VALID,47,VALID,0.575758,
2003-05-01, 03:17:00,VALID,914.198,VALID,0,VALID,98.0534,VALID,0.271693,VALID,18.7871,VALID,47,VALID,0.645182,
2003-05-01, 03:18:00,VALID,914.207,VALID,0,VALID,98.3103,VALID,0.237732,VALID,18.7802,VALID,47,VALID,0.794643,
2003-05-01, 03:19:00,VALID,914.196,VALID,0,VALID,98.6002,VALID,0.373578,VALID,18.8386,VALID,47,VALID,0.846828,
2003-05-01, 03:20:00,VALID,914.194,VALID,0,VALID,98.7337,VALID,0.373578,VALID,18.8513,VALID,54,VALID,0.9,
2003-05-01, 03:21:00,VALID,914.2,VALID,0,VALID,98.8139,VALID,0.254712,VALID,18.8936,VALID,72,VALID,0.877232,
2003-05-01, 03:22:00,VALID,914.184,VALID,0,VALID,98.7172,VALID,0.288674,VALID,18.903,VALID,75,VALID,0.794034,
2003-05-01, 03:23:00,VALID,914.174,VALID,0,VALID,98.6536,VALID,0.288674,VALID,18.8841,VALID,75,VALID,0.67866,
2003-05-01, 03:24:00,VALID,914.166,VALID,0,VALID,98.5176,VALID,0.322636,VALID,18.8423,VALID,75,VALID,0.782629,
2003-05-01, 03:25:00,VALID,914.157,VALID,0,VALID,98.4514,VALID,0.322636,VALID,18.8259,VALID,75,VALID,0.707623,
2003-05-01, 03:26:00,VALID,914.156,VALID,0,VALID,98.6638,VALID,0.356597,VALID,18.809,VALID,74,VALID,0.718533,
2003-05-01, 03:27:00,VALID,914.14,VALID,0,VALID,98.7871,VALID,0.271693,VALID,18.8254,VALID,66,VALID,0.761161,
2003-05-01, 03:28:00,VALID,914.143,VALID,0,VALID,98.81,VALID,0.254712,VALID,18.8317,VALID,64,VALID,0.821259,
2003-05-01, 03:29:00,VALID,914.148,VALID,0,VALID,98.8723,VALID,0.271693,VALID,18.8289,VALID,59,VALID,0.98058,
2003-05-01, 03:30:00,VALID,914.142,VALID,0,VALID,98.9703,VALID,0.271693,VALID,18.8515,VALID,61,VALID,0.717634,
2003-05-01, 03:31:00,VALID,914.142,VALID,0,VALID,98.9308,VALID,0.271693,VALID,18.8682,VALID,66,VALID,0.881866,
2003-05-01, 03:32:00,VALID,914.138,VALID,0,VALID,98.9982,VALID,0.288674,VALID,18.8587,VALID,75,VALID,0.874794,
2003-05-01, 03:33:00,VALID,914.143,VALID,0,VALID,99.2017,VALID,0.271693,VALID,18.8843,VALID,84,VALID,1.13212,